LEMUR-2-MIA-GRACE

Last updated on Wed Feb 14 2018 16:20:28 GMT+0000 (Greenwich Mean Time)

1 41992U 17008AW 18045.14591923 .00001623 00000-0 70896-4 0 9999 2 41992 97.4654 110.5926 0009263 73.9290 286.2966 15.23524700 54687
UTC large
Height (km)
Speed (km/s)
/
Latitude / Longitude
Inclination (degrees)
Orbital Period (minutes)
Azimuth
Elevation
Range (km)
Doppler Factor

Next 0 passes for location: London (51.5072 / 0.1276)

Sorry there are no passes over London.